User: anonymous   Login
Location: Unspecified
(45.4241°N, 0.0000°E)
Time: 14:09:50
(UTC+00:00)
Language:

SL-08 R/B - Orbit

View from above orbital plane
View from above orbital plane
View from above satellite
View from above satellite

Ground track
Ground track

The orbit is defined by the following mean orbital elements,

1 28381U          26088.18573632 +.00000000 +00000-0 +18351-3 0 00005
2 28381  82.9535 110.8349 0032455  29.1504  41.1735 13.78617796    08
Epoch (UTC): 29 March 2026 04:27:27
Eccentricity: 0.0032455
inclination: 82.9535°
perigee height: 945 km
apogee height: 993 km
right ascension of ascending node: 110.8349°
argument of perigee: 29.1504°
revolutions per day: 13.78617796
mean anomaly at epoch: 41.1735°

The dashed part of the orbit path shows where the satellite is in the earth's shadow,  

DLR